owner,sensor,date,latitude,longitude,vertical_datum,wind_speed,wind_to_direction,wind_speed_of_gust,qcFlag 
WAVCIS,ioos:station:WAVCIS:CSI03:3,2009-05-01T00:00:00Z,29.4412,-92.0613,10.0,7.58,155.0,,'11111222,11111222,99999999' 
WAVCIS,ioos:station:WAVCIS:CSI03:3,2009-05-01T01:00:00Z,29.4412,-92.0613,10.0,8.16,158.0,,'11111222,11111222,99999999' 
WAVCIS,ioos:station:WAVCIS:CSI03:3,2009-05-01T02:00:00Z,29.4412,-92.0613,10.0,9.35,163.0,,'11111222,11111222,99999999' 
WAVCIS,ioos:station:WAVCIS:CSI03:3,2009-05-01T03:00:00Z,29.4412,-92.0613,10.0,8.11,169.0,,'11111222,11111222,99999999' 
WAVCIS,ioos:station:WAVCIS:CSI03:3,2009-05-01T04:00:00Z,29.4412,-92.0613,10.0,7.97,166.0,,'11111222,11111222,99999999' 
WAVCIS,ioos:station:WAVCIS:CSI03:3,2009-05-01T05:00:00Z,29.4412,-92.0613,10.0,11.91,165.0,,'11111222,11111222,99999999' 
WAVCIS,ioos:station:WAVCIS:CSI03:3,2009-05-01T06:00:00Z,29.4412,-92.0613,10.0,10.35,168.0,,'11111222,11111222,99999999' 
WAVCIS,ioos:station:WAVCIS:CSI03:3,2009-05-01T07:00:00Z,29.4412,-92.0613,10.0,7.06,173.0,,'11111222,11111222,99999999' 
WAVCIS,ioos:station:WAVCIS:CSI03:3,2009-05-01T08:00:00Z,29.4412,-92.0613,10.0,8.17,177.0,,'11111222,11111222,99999999' 
WAVCIS,ioos:station:WAVCIS:CSI03:3,2009-05-01T09:00:00Z,29.4412,-92.0613,10.0,7.29,177.0,,'11111222,11111222,99999999' 
WAVCIS,ioos:station:WAVCIS:CSI03:3,2009-05-01T10:00:00Z,29.4412,-92.0613,10.0,5.269,185.0,,'11111222,11111222,99999999' 
WAVCIS,ioos:station:WAVCIS:CSI03:3,2009-05-01T11:00:00Z,29.4412,-92.0613,10.0,5.708,183.0,,'11111222,11111222,99999999' 
WAVCIS,ioos:station:WAVCIS:CSI03:3,2009-05-01T12:00:00Z,29.4412,-92.0613,10.0,5.486,184.0,,'11111222,11111222,99999999' 
WAVCIS,ioos:station:WAVCIS:CSI03:3,2009-05-01T13:00:00Z,29.4412,-92.0613,10.0,4.297,186.0,,'11111222,11111222,99999999' 
WAVCIS,ioos:station:WAVCIS:CSI03:3,2009-05-01T14:00:00Z,29.4412,-92.0613,10.0,5.598,181.0,,'11111222,11111222,99999999' 
WAVCIS,ioos:station:WAVCIS:CSI03:3,2009-05-01T15:00:00Z,29.4412,-92.0613,10.0,5.739,179.0,,'11111222,11111222,99999999' 
WAVCIS,ioos:station:WAVCIS:CSI03:3,2009-05-01T16:00:00Z,29.4412,-92.0613,10.0,5.744,177.0,,'11111222,11111222,99999999' 
WAVCIS,ioos:station:WAVCIS:CSI03:3,2009-05-01T17:00:00Z,29.4412,-92.0613,10.0,5.372,168.0,,'11111222,11111222,99999999' 
WAVCIS,ioos:station:WAVCIS:CSI03:3,2009-05-01T18:00:00Z,29.4412,-92.0613,10.0,5.171,157.0,,'11111222,11111222,99999999' 
WAVCIS,ioos:station:WAVCIS:CSI03:3,2009-05-01T19:00:00Z,29.4412,-92.0613,10.0,5.086,153.0,,'11111222,11111222,99999999' 
WAVCIS,ioos:station:WAVCIS:CSI03:3,2009-05-01T20:00:00Z,29.4412,-92.0613,10.0,5.454,150.0,,'11111222,11111222,99999999' 
WAVCIS,ioos:station:WAVCIS:CSI03:3,2009-05-01T21:00:00Z,29.4412,-92.0613,10.0,6.103,151.0,,'11111222,11111222,99999999' 
WAVCIS,ioos:station:WAVCIS:CSI03:3,2009-05-01T22:00:00Z,29.4412,-92.0613,10.0,6.922,154.0,,'11111222,11111222,99999999' 
WAVCIS,ioos:station:WAVCIS:CSI03:3,2009-05-01T23:00:00Z,29.4412,-92.0613,10.0,7.25,157.0,,'11111222,11111222,99999999' 
WAVCIS,ioos:station:WAVCIS:CSI03:3,2009-05-02T00:00:00Z,29.4412,-92.0613,10.0,8.21,160.0,,'11111222,11111222,99999999' 
WAVCIS,ioos:station:WAVCIS:CSI03:3,2009-05-02T01:00:00Z,29.4412,-92.0613,10.0,8.46,164.0,,'11111222,11111222,99999999' 
WAVCIS,ioos:station:WAVCIS:CSI03:3,2009-05-02T02:00:00Z,29.4412,-92.0613,10.0,9.12,167.0,,'11111222,11111222,99999999' 
WAVCIS,ioos:station:WAVCIS:CSI03:3,2009-05-02T03:00:00Z,29.4412,-92.0613,10.0,8.54,170.0,,'11111222,11111222,99999999' 
WAVCIS,ioos:station:WAVCIS:CSI03:3,2009-05-02T04:00:00Z,29.4412,-92.0613,10.0,7.93,169.0,,'11111222,11111222,99999999' 
WAVCIS,ioos:station:WAVCIS:CSI03:3,2009-05-02T05:00:00Z,29.4412,-92.0613,10.0,7.63,175.0,,'11111222,11111222,99999999' 
WAVCIS,ioos:station:WAVCIS:CSI03:3,2009-05-02T06:00:00Z,29.4412,-92.0613,10.0,6.631,179.0,,'11111222,11111222,99999999' 
WAVCIS,ioos:station:WAVCIS:CSI03:3,2009-05-02T07:00:00Z,29.4412,-92.0613,10.0,5.087,181.0,,'11111222,11111222,99999999' 
WAVCIS,ioos:station:WAVCIS:CSI03:3,2009-05-02T08:00:00Z,29.4412,-92.0613,10.0,4.652,183.0,,'11111222,11111222,99999999' 
WAVCIS,ioos:station:WAVCIS:CSI03:3,2009-05-02T09:00:00Z,29.4412,-92.0613,10.0,5.377,181.0,,'11111222,11111222,99999999' 
WAVCIS,ioos:station:WAVCIS:CSI03:3,2009-05-02T10:00:00Z,29.4412,-92.0613,10.0,3.976,186.0,,'11111222,11111222,99999999' 
WAVCIS,ioos:station:WAVCIS:CSI03:3,2009-05-02T11:00:00Z,29.4412,-92.0613,10.0,3.991,188.0,,'11111222,11111222,99999999' 
WAVCIS,ioos:station:WAVCIS:CSI03:3,2009-05-02T12:00:00Z,29.4412,-92.0613,10.0,3.394,191.0,,'11111222,11111222,99999999' 
WAVCIS,ioos:station:WAVCIS:CSI03:3,2009-05-02T13:00:00Z,29.4412,-92.0613,10.0,3.131,190.0,,'11111222,11111222,99999999' 
WAVCIS,ioos:station:WAVCIS:CSI03:3,2009-05-02T14:00:00Z,29.4412,-92.0613,10.0,3.506,189.0,,'11111222,11111222,99999999' 
WAVCIS,ioos:station:WAVCIS:CSI03:3,2009-05-02T15:00:00Z,29.4412,-92.0613,10.0,6.731,176.0,,'11111222,11111222,99999999' 
WAVCIS,ioos:station:WAVCIS:CSI03:3,2009-05-02T16:00:00Z,29.4412,-92.0613,10.0,6.857,175.0,,'11111222,11111222,99999999' 
WAVCIS,ioos:station:WAVCIS:CSI03:3,2009-05-02T17:00:00Z,29.4412,-92.0613,10.0,8.0,172.0,,'11111222,11111222,99999999' 
WAVCIS,ioos:station:WAVCIS:CSI03:3,2009-05-02T18:00:00Z,29.4412,-92.0613,10.0,6.493,169.0,,'11111222,11111222,99999999' 
WAVCIS,ioos:station:WAVCIS:CSI03:3,2009-05-02T19:00:00Z,29.4412,-92.0613,10.0,7.13,174.0,,'11111222,11111222,99999999' 
WAVCIS,ioos:station:WAVCIS:CSI03:3,2009-05-02T20:00:00Z,29.4412,-92.0613,10.0,7.69,171.0,,'11111222,11111222,99999999' 
WAVCIS,ioos:station:WAVCIS:CSI03:3,2009-05-02T21:00:00Z,29.4412,-92.0613,10.0,6.979,178.0,,'11111222,11111222,99999999' 
WAVCIS,ioos:station:WAVCIS:CSI03:3,2009-05-02T22:00:00Z,29.4412,-92.0613,10.0,8.4,171.0,,'11111222,11111222,99999999' 
WAVCIS,ioos:station:WAVCIS:CSI03:3,2009-05-02T23:00:00Z,29.4412,-92.0613,10.0,8.21,173.0,,'11111222,11111222,99999999' 
WAVCIS,ioos:station:WAVCIS:CSI03:3,2009-05-03T00:00:00Z,29.4412,-92.0613,10.0,9.34,172.0,,'11111222,11111222,99999999' 
WAVCIS,ioos:station:WAVCIS:CSI03:3,2009-05-03T01:00:00Z,29.4412,-92.0613,10.0,9.42,175.0,,'11111222,11111222,99999999' 
WAVCIS,ioos:station:WAVCIS:CSI03:3,2009-05-03T02:00:00Z,29.4412,-92.0613,10.0,8.66,178.0,,'11111222,11111222,99999999' 
WAVCIS,ioos:station:WAVCIS:CSI03:3,2009-05-03T03:00:00Z,29.4412,-92.0613,10.0,9.37,177.0,,'11111222,11111222,99999999' 
WAVCIS,ioos:station:WAVCIS:CSI03:3,2009-05-03T04:00:00Z,29.4412,-92.0613,10.0,8.15,180.0,,'11111222,11111222,99999999' 
WAVCIS,ioos:station:WAVCIS:CSI03:3,2009-05-03T05:00:00Z,29.4412,-92.0613,10.0,8.45,178.0,,'11111222,11111222,99999999' 
WAVCIS,ioos:station:WAVCIS:CSI03:3,2009-05-03T06:00:00Z,29.4412,-92.0613,10.0,6.431,182.0,,'11111222,11111222,99999999' 
WAVCIS,ioos:station:WAVCIS:CSI03:3,2009-05-03T07:00:00Z,29.4412,-92.0613,10.0,3.978,188.0,,'11111222,11111222,99999999' 
WAVCIS,ioos:station:WAVCIS:CSI03:3,2009-05-03T08:00:00Z,29.4412,-92.0613,10.0,6.819,178.0,,'11111222,11111222,99999999' 
WAVCIS,ioos:station:WAVCIS:CSI03:3,2009-05-03T09:00:00Z,29.4412,-92.0613,10.0,10.38,171.0,,'11111222,11111222,99999999' 
WAVCIS,ioos:station:WAVCIS:CSI03:3,2009-05-03T10:00:00Z,29.4412,-92.0613,10.0,4.159,190.0,,'11111222,11111222,99999999' 
WAVCIS,ioos:station:WAVCIS:CSI03:3,2009-05-03T11:00:00Z,29.4412,-92.0613,10.0,6.023,183.0,,'11111222,11111222,99999999' 
WAVCIS,ioos:station:WAVCIS:CSI03:3,2009-05-03T12:00:00Z,29.4412,-92.0613,10.0,8.4,177.0,,'11111222,11111222,99999999' 
WAVCIS,ioos:station:WAVCIS:CSI03:3,2009-05-03T13:00:00Z,29.4412,-92.0613,10.0,10.71,176.0,,'11111222,11111222,99999999' 
WAVCIS,ioos:station:WAVCIS:CSI03:3,2009-05-03T14:00:00Z,29.4412,-92.0613,10.0,8.45,179.0,,'11111222,11111222,99999999' 
WAVCIS,ioos:station:WAVCIS:CSI03:3,2009-05-03T15:00:00Z,29.4412,-92.0613,10.0,7.08,186.0,,'11111222,11111222,99999999' 
WAVCIS,ioos:station:WAVCIS:CSI03:3,2009-05-03T16:00:00Z,29.4412,-92.0613,10.0,2.483,199.0,,'11111222,11111222,99999999' 
WAVCIS,ioos:station:WAVCIS:CSI03:3,2009-05-03T17:00:00Z,29.4412,-92.0613,10.0,3.504,198.0,,'11111222,11111222,99999999' 
WAVCIS,ioos:station:WAVCIS:CSI03:3,2009-05-03T18:00:00Z,29.4412,-92.0613,10.0,4.478,187.0,,'11111222,11111222,99999999' 
WAVCIS,ioos:station:WAVCIS:CSI03:3,2009-05-03T19:00:00Z,29.4412,-92.0613,10.0,3.126,193.0,,'11111222,11111222,99999999' 
WAVCIS,ioos:station:WAVCIS:CSI03:3,2009-05-03T20:00:00Z,29.4412,-92.0613,10.0,4.366,181.0,,'11111222,11111222,99999999' 
WAVCIS,ioos:station:WAVCIS:CSI03:3,2009-05-03T21:00:00Z,29.4412,-92.0613,10.0,5.661,169.0,,'11111222,11111222,99999999' 
WAVCIS,ioos:station:WAVCIS:CSI03:3,2009-05-03T22:00:00Z,29.4412,-92.0613,10.0,4.958,174.0,,'11111222,11111222,99999999' 
WAVCIS,ioos:station:WAVCIS:CSI03:3,2009-05-03T23:00:00Z,29.4412,-92.0613,10.0,6.207,165.0,,'11111222,11111222,99999999' 
WAVCIS,ioos:station:WAVCIS:CSI03:3,2009-05-04T00:00:00Z,29.4412,-92.0613,10.0,7.48,162.0,,'11111222,11111222,99999999' 
WAVCIS,ioos:station:WAVCIS:CSI03:3,2009-05-04T01:00:00Z,29.4412,-92.0613,10.0,8.16,168.0,,'11111222,11111222,99999999' 
WAVCIS,ioos:station:WAVCIS:CSI03:3,2009-05-04T02:00:00Z,29.4412,-92.0613,10.0,8.15,171.0,,'11111222,11111222,99999999' 
WAVCIS,ioos:station:WAVCIS:CSI03:3,2009-05-04T03:00:00Z,29.4412,-92.0613,10.0,7.64,179.0,,'11111222,11111222,99999999' 
WAVCIS,ioos:station:WAVCIS:CSI03:3,2009-05-04T04:00:00Z,29.4412,-92.0613,10.0,5.883,183.0,,'11111222,11111222,99999999' 
WAVCIS,ioos:station:WAVCIS:CSI03:3,2009-05-04T05:00:00Z,29.4412,-92.0613,10.0,4.05,198.0,,'11111222,11111222,99999999' 
WAVCIS,ioos:station:WAVCIS:CSI03:3,2009-05-04T06:00:00Z,29.4412,-92.0613,10.0,5.354,202.0,,'11111222,11111222,99999999' 
WAVCIS,ioos:station:WAVCIS:CSI03:3,2009-05-04T07:00:00Z,29.4412,-92.0613,10.0,4.053,195.0,,'11111222,11111222,99999999' 
WAVCIS,ioos:station:WAVCIS:CSI03:3,2009-05-04T08:00:00Z,29.4412,-92.0613,10.0,0.673,213.0,,'11111222,11111222,99999999' 
WAVCIS,ioos:station:WAVCIS:CSI03:3,2009-05-04T09:00:00Z,29.4412,-92.0613,10.0,0.737,201.0,,'11111222,11111222,99999999' 
WAVCIS,ioos:station:WAVCIS:CSI03:3,2009-05-04T10:00:00Z,29.4412,-92.0613,10.0,0.838,200.0,,'11111222,11111222,99999999' 
WAVCIS,ioos:station:WAVCIS:CSI03:3,2009-05-04T11:00:00Z,29.4412,-92.0613,10.0,1.879,225.0,,'11111222,11111222,99999999' 
WAVCIS,ioos:station:WAVCIS:CSI03:3,2009-05-04T12:00:00Z,29.4412,-92.0613,10.0,4.269,236.0,,'11111222,11111222,99999999' 
WAVCIS,ioos:station:WAVCIS:CSI03:3,2009-05-04T13:00:00Z,29.4412,-92.0613,10.0,5.71,240.0,,'11111222,11111222,99999999' 
WAVCIS,ioos:station:WAVCIS:CSI03:3,2009-05-04T14:00:00Z,29.4412,-92.0613,10.0,1.718,225.0,,'11111222,11111222,99999999' 
WAVCIS,ioos:station:WAVCIS:CSI03:3,2009-05-04T15:00:00Z,29.4412,-92.0613,10.0,4.536,236.0,,'11111222,11111222,99999999' 
WAVCIS,ioos:station:WAVCIS:CSI03:3,2009-05-04T16:00:00Z,29.4412,-92.0613,10.0,5.271,241.0,,'11111222,11111222,99999999' 
WAVCIS,ioos:station:WAVCIS:CSI03:3,2009-05-04T17:00:00Z,29.4412,-92.0613,10.0,3.819,253.0,,'11111222,11111222,99999999' 
WAVCIS,ioos:station:WAVCIS:CSI03:3,2009-05-04T18:00:00Z,29.4412,-92.0613,10.0,1.926,310.0,,'11111222,11111222,99999999' 
WAVCIS,ioos:station:WAVCIS:CSI03:3,2009-05-04T19:00:00Z,29.4412,-92.0613,10.0,2.086,19.0,,'11111222,11111222,99999999' 
WAVCIS,ioos:station:WAVCIS:CSI03:3,2009-05-04T20:00:00Z,29.4412,-92.0613,10.0,1.527,47.0,,'11111222,11111222,99999999' 
WAVCIS,ioos:station:WAVCIS:CSI03:3,2009-05-04T21:00:00Z,29.4412,-92.0613,10.0,1.234,94.0,,'11111222,11111222,99999999' 
WAVCIS,ioos:station:WAVCIS:CSI03:3,2009-05-04T22:00:00Z,29.4412,-92.0613,10.0,2.646,185.0,,'11111222,11111222,99999999' 
WAVCIS,ioos:station:WAVCIS:CSI03:3,2009-05-04T23:00:00Z,29.4412,-92.0613,10.0,1.763,185.0,,'11111222,11111222,99999999' 
WAVCIS,ioos:station:WAVCIS:CSI03:3,2009-05-05T00:00:00Z,29.4412,-92.0613,10.0,1.238,232.0,,'11111222,11111222,99999999' 
WAVCIS,ioos:station:WAVCIS:CSI03:3,2009-05-05T01:00:00Z,29.4412,-92.0613,10.0,0.459,205.0,,'11111222,11111222,99999999' 
WAVCIS,ioos:station:WAVCIS:CSI03:3,2009-05-05T02:00:00Z,29.4412,-92.0613,10.0,3.525,194.0,,'11111222,11111222,99999999' 
WAVCIS,ioos:station:WAVCIS:CSI03:3,2009-05-05T03:00:00Z,29.4412,-92.0613,10.0,2.689,187.0,,'11111222,11111222,99999999' 
WAVCIS,ioos:station:WAVCIS:CSI03:3,2009-05-05T04:00:00Z,29.4412,-92.0613,10.0,2.512,189.0,,'11111222,11111222,99999999' 
WAVCIS,ioos:station:WAVCIS:CSI03:3,2009-05-05T05:00:00Z,29.4412,-92.0613,10.0,2.646,182.0,,'11111222,11111222,99999999' 
WAVCIS,ioos:station:WAVCIS:CSI03:3,2009-05-05T06:00:00Z,29.4412,-92.0613,10.0,2.597,188.0,,'11111222,11111222,99999999' 
WAVCIS,ioos:station:WAVCIS:CSI03:3,2009-05-05T07:00:00Z,29.4412,-92.0613,10.0,3.911,183.0,,'11111222,11111222,99999999' 
WAVCIS,ioos:station:WAVCIS:CSI03:3,2009-05-05T08:00:00Z,29.4412,-92.0613,10.0,3.308,192.0,,'11111222,11111222,99999999' 
WAVCIS,ioos:station:WAVCIS:CSI03:3,2009-05-05T09:00:00Z,29.4412,-92.0613,10.0,3.288,194.0,,'11111222,11111222,99999999' 
WAVCIS,ioos:station:WAVCIS:CSI03:3,2009-05-05T10:00:00Z,29.4412,-92.0613,10.0,3.08,192.0,,'11111222,11111222,99999999' 
WAVCIS,ioos:station:WAVCIS:CSI03:3,2009-05-05T11:00:00Z,29.4412,-92.0613,10.0,3.427,194.0,,'11111222,11111222,99999999' 
WAVCIS,ioos:station:WAVCIS:CSI03:3,2009-05-05T12:00:00Z,29.4412,-92.0613,10.0,3.032,195.0,,'11111222,11111222,99999999' 
WAVCIS,ioos:station:WAVCIS:CSI03:3,2009-05-05T13:00:00Z,29.4412,-92.0613,10.0,3.841,181.0,,'11111222,11111222,99999999' 
WAVCIS,ioos:station:WAVCIS:CSI03:3,2009-05-05T14:00:00Z,29.4412,-92.0613,10.0,4.105,183.0,,'11111222,11111222,99999999' 
WAVCIS,ioos:station:WAVCIS:CSI03:3,2009-05-05T15:00:00Z,29.4412,-92.0613,10.0,5.685,181.0,,'11111222,11111222,99999999' 
WAVCIS,ioos:station:WAVCIS:CSI03:3,2009-05-05T16:00:00Z,29.4412,-92.0613,10.0,6.477,177.0,,'11111222,11111222,99999999' 
WAVCIS,ioos:station:WAVCIS:CSI03:3,2009-05-05T17:00:00Z,29.4412,-92.0613,10.0,5.391,179.0,,'11111222,11111222,99999999' 
WAVCIS,ioos:station:WAVCIS:CSI03:3,2009-05-05T18:00:00Z,29.4412,-92.0613,10.0,3.148,199.0,,'11111222,11111222,99999999' 
WAVCIS,ioos:station:WAVCIS:CSI03:3,2009-05-05T19:00:00Z,29.4412,-92.0613,10.0,3.777,200.0,,'11111222,11111222,99999999' 
WAVCIS,ioos:station:WAVCIS:CSI03:3,2009-05-05T20:00:00Z,29.4412,-92.0613,10.0,4.102,185.0,,'11111222,11111222,99999999' 
WAVCIS,ioos:station:WAVCIS:CSI03:3,2009-05-05T21:00:00Z,29.4412,-92.0613,10.0,3.429,192.0,,'11111222,11111222,99999999' 
WAVCIS,ioos:station:WAVCIS:CSI03:3,2009-05-05T22:00:00Z,29.4412,-92.0613,10.0,5.378,179.0,,'11111222,11111222,99999999' 
WAVCIS,ioos:station:WAVCIS:CSI03:3,2009-05-05T23:00:00Z,29.4412,-92.0613,10.0,4.548,182.0,,'11111222,11111222,99999999' 
WAVCIS,ioos:station:WAVCIS:CSI03:3,2009-05-06T00:00:00Z,29.4412,-92.0613,10.0,5.699,175.0,,'11111222,11111222,99999999' 
WAVCIS,ioos:station:WAVCIS:CSI03:3,2009-05-06T01:00:00Z,29.4412,-92.0613,10.0,7.2,169.0,,'11111222,11111222,99999999' 
WAVCIS,ioos:station:WAVCIS:CSI03:3,2009-05-06T02:00:00Z,29.4412,-92.0613,10.0,8.78,169.0,,'11111222,11111222,99999999' 
WAVCIS,ioos:station:WAVCIS:CSI03:3,2009-05-06T03:00:00Z,29.4412,-92.0613,10.0,9.4,171.0,,'11111222,11111222,99999999' 
WAVCIS,ioos:station:WAVCIS:CSI03:3,2009-05-06T04:00:00Z,29.4412,-92.0613,10.0,9.53,173.0,,'11111222,11111222,99999999' 
WAVCIS,ioos:station:WAVCIS:CSI03:3,2009-05-06T05:00:00Z,29.4412,-92.0613,10.0,8.66,178.0,,'11111222,11111222,99999999' 
WAVCIS,ioos:station:WAVCIS:CSI03:3,2009-05-06T06:00:00Z,29.4412,-92.0613,10.0,8.56,179.0,,'11111222,11111222,99999999' 
WAVCIS,ioos:station:WAVCIS:CSI03:3,2009-05-06T07:00:00Z,29.4412,-92.0613,10.0,4.868,188.0,,'11111222,11111222,99999999' 
WAVCIS,ioos:station:WAVCIS:CSI03:3,2009-05-06T08:00:00Z,29.4412,-92.0613,10.0,5.183,190.0,,'11111222,11111222,99999999' 
WAVCIS,ioos:station:WAVCIS:CSI03:3,2009-05-06T09:00:00Z,29.4412,-92.0613,10.0,5.519,203.0,,'11111222,11111222,99999999' 
WAVCIS,ioos:station:WAVCIS:CSI03:3,2009-05-06T10:00:00Z,29.4412,-92.0613,10.0,6.109,203.0,,'11111222,11111222,99999999' 
WAVCIS,ioos:station:WAVCIS:CSI03:3,2009-05-06T11:00:00Z,29.4412,-92.0613,10.0,2.299,194.0,,'11111222,11111222,99999999' 
WAVCIS,ioos:station:WAVCIS:CSI03:3,2009-05-06T12:00:00Z,29.4412,-92.0613,10.0,2.755,197.0,,'11111222,11111222,99999999' 
WAVCIS,ioos:station:WAVCIS:CSI03:3,2009-05-06T13:00:00Z,29.4412,-92.0613,10.0,6.316,203.0,,'11111222,11111222,99999999' 
WAVCIS,ioos:station:WAVCIS:CSI03:3,2009-05-06T14:00:00Z,29.4412,-92.0613,10.0,5.598,203.0,,'11111222,11111222,99999999' 
WAVCIS,ioos:station:WAVCIS:CSI03:3,2009-05-06T15:00:00Z,29.4412,-92.0613,10.0,6.114,203.0,,'11111222,11111222,99999999' 
WAVCIS,ioos:station:WAVCIS:CSI03:3,2009-05-06T16:00:00Z,29.4412,-92.0613,10.0,5.848,182.0,,'11111222,11111222,99999999' 
WAVCIS,ioos:station:WAVCIS:CSI03:3,2009-05-06T17:00:00Z,29.4412,-92.0613,10.0,4.631,189.0,,'11111222,11111222,99999999' 
WAVCIS,ioos:station:WAVCIS:CSI03:3,2009-05-06T18:00:00Z,29.4412,-92.0613,10.0,4.387,190.0,,'11111222,11111222,99999999' 
WAVCIS,ioos:station:WAVCIS:CSI03:3,2009-05-06T19:00:00Z,29.4412,-92.0613,10.0,4.467,200.0,,'11111222,11111222,99999999' 
WAVCIS,ioos:station:WAVCIS:CSI03:3,2009-05-06T20:00:00Z,29.4412,-92.0613,10.0,3.606,187.0,,'11111222,11111222,99999999' 
WAVCIS,ioos:station:WAVCIS:CSI03:3,2009-05-06T21:00:00Z,29.4412,-92.0613,10.0,3.622,185.0,,'11111222,11111222,99999999' 
WAVCIS,ioos:station:WAVCIS:CSI03:3,2009-05-06T22:00:00Z,29.4412,-92.0613,10.0,5.003,175.0,,'11111222,11111222,99999999' 
WAVCIS,ioos:station:WAVCIS:CSI03:3,2009-05-06T23:00:00Z,29.4412,-92.0613,10.0,5.733,167.0,,'11111222,11111222,99999999' 
WAVCIS,ioos:station:WAVCIS:CSI03:3,2009-05-07T00:00:00Z,29.4412,-92.0613,10.0,5.587,174.0,,'11111222,11111222,99999999' 
WAVCIS,ioos:station:WAVCIS:CSI03:3,2009-05-07T01:00:00Z,29.4412,-92.0613,10.0,6.093,174.0,,'11111222,11111222,99999999' 
WAVCIS,ioos:station:WAVCIS:CSI03:3,2009-05-07T02:00:00Z,29.4412,-92.0613,10.0,6.424,178.0,,'11111222,11111222,99999999' 
WAVCIS,ioos:station:WAVCIS:CSI03:3,2009-05-07T03:00:00Z,29.4412,-92.0613,10.0,6.698,180.0,,'11111222,11111222,99999999' 
WAVCIS,ioos:station:WAVCIS:CSI03:3,2009-05-07T04:00:00Z,29.4412,-92.0613,10.0,4.424,188.0,,'11111222,11111222,99999999' 
WAVCIS,ioos:station:WAVCIS:CSI03:3,2009-05-07T05:00:00Z,29.4412,-92.0613,10.0,3.373,196.0,,'11111222,11111222,99999999' 
WAVCIS,ioos:station:WAVCIS:CSI03:3,2009-05-07T06:00:00Z,29.4412,-92.0613,10.0,4.904,201.0,,'11111222,11111222,99999999' 
WAVCIS,ioos:station:WAVCIS:CSI03:3,2009-05-07T07:00:00Z,29.4412,-92.0613,10.0,4.477,198.0,,'11111222,11111222,99999999' 
WAVCIS,ioos:station:WAVCIS:CSI03:3,2009-05-07T08:00:00Z,29.4412,-92.0613,10.0,4.621,199.0,,'11111222,11111222,99999999' 
WAVCIS,ioos:station:WAVCIS:CSI03:3,2009-05-07T09:00:00Z,29.4412,-92.0613,10.0,4.395,198.0,,'11111222,11111222,99999999' 
WAVCIS,ioos:station:WAVCIS:CSI03:3,2009-05-07T10:00:00Z,29.4412,-92.0613,10.0,3.676,187.0,,'11111222,11111222,99999999' 
WAVCIS,ioos:station:WAVCIS:CSI03:3,2009-05-07T11:00:00Z,29.4412,-92.0613,10.0,4.827,180.0,,'11111222,11111222,99999999' 
WAVCIS,ioos:station:WAVCIS:CSI03:3,2009-05-07T12:00:00Z,29.4412,-92.0613,10.0,5.629,179.0,,'11111222,11111222,99999999' 
WAVCIS,ioos:station:WAVCIS:CSI03:3,2009-05-07T13:00:00Z,29.4412,-92.0613,10.0,6.246,177.0,,'11111222,11111222,99999999' 
WAVCIS,ioos:station:WAVCIS:CSI03:3,2009-05-07T14:00:00Z,29.4412,-92.0613,10.0,5.3,180.0,,'11111222,11111222,99999999' 
WAVCIS,ioos:station:WAVCIS:CSI03:3,2009-05-07T15:00:00Z,29.4412,-92.0613,10.0,3.772,192.0,,'11111222,11111222,99999999' 
WAVCIS,ioos:station:WAVCIS:CSI03:3,2009-05-07T16:00:00Z,29.4412,-92.0613,10.0,4.753,182.0,,'11111222,11111222,99999999' 
WAVCIS,ioos:station:WAVCIS:CSI03:3,2009-05-07T17:00:00Z,29.4412,-92.0613,10.0,4.812,182.0,,'11111222,11111222,99999999' 
WAVCIS,ioos:station:WAVCIS:CSI03:3,2009-05-07T18:00:00Z,29.4412,-92.0613,10.0,3.456,188.0,,'11111222,11111222,99999999' 
WAVCIS,ioos:station:WAVCIS:CSI03:3,2009-05-07T19:00:00Z,29.4412,-92.0613,10.0,3.564,197.0,,'11111222,11111222,99999999' 
WAVCIS,ioos:station:WAVCIS:CSI03:3,2009-05-07T20:00:00Z,29.4412,-92.0613,10.0,3.986,192.0,,'11111222,11111222,99999999' 
WAVCIS,ioos:station:WAVCIS:CSI03:3,2009-05-07T21:00:00Z,29.4412,-92.0613,10.0,4.312,201.0,,'11111222,11111222,99999999' 
WAVCIS,ioos:station:WAVCIS:CSI03:3,2009-05-07T22:00:00Z,29.4412,-92.0613,10.0,3.228,196.0,,'11111222,11111222,99999999' 
WAVCIS,ioos:station:WAVCIS:CSI03:3,2009-05-07T23:00:00Z,29.4412,-92.0613,10.0,3.696,200.0,,'11111222,11111222,99999999' 
WAVCIS,ioos:station:WAVCIS:CSI03:3,2009-05-08T00:00:00Z,29.4412,-92.0613,10.0,3.994,195.0,,'11111222,11111222,99999999' 
WAVCIS,ioos:station:WAVCIS:CSI03:3,2009-05-08T01:00:00Z,29.4412,-92.0613,10.0,4.026,190.0,,'11111222,11111222,99999999' 
WAVCIS,ioos:station:WAVCIS:CSI03:3,2009-05-08T02:00:00Z,29.4412,-92.0613,10.0,3.806,190.0,,'11111222,11111222,99999999' 
WAVCIS,ioos:station:WAVCIS:CSI03:3,2009-05-08T03:00:00Z,29.4412,-92.0613,10.0,6.715,180.0,,'11111222,11111222,99999999' 
WAVCIS,ioos:station:WAVCIS:CSI03:3,2009-05-08T04:00:00Z,29.4412,-92.0613,10.0,5.566,184.0,,'11111222,11111222,99999999' 
WAVCIS,ioos:station:WAVCIS:CSI03:3,2009-05-08T05:00:00Z,29.4412,-92.0613,10.0,3.263,197.0,,'11111222,11111222,99999999' 
WAVCIS,ioos:station:WAVCIS:CSI03:3,2009-05-08T06:00:00Z,29.4412,-92.0613,10.0,5.603,203.0,,'11111222,11111222,99999999' 
WAVCIS,ioos:station:WAVCIS:CSI03:3,2009-05-08T07:00:00Z,29.4412,-92.0613,10.0,3.461,196.0,,'11111222,11111222,99999999' 
WAVCIS,ioos:station:WAVCIS:CSI03:3,2009-05-08T08:00:00Z,29.4412,-92.0613,10.0,3.982,199.0,,'11111222,11111222,99999999' 
WAVCIS,ioos:station:WAVCIS:CSI03:3,2009-05-08T09:00:00Z,29.4412,-92.0613,10.0,5.099,203.0,,'11111222,11111222,99999999' 
WAVCIS,ioos:station:WAVCIS:CSI03:3,2009-05-08T10:00:00Z,29.4412,-92.0613,10.0,4.504,195.0,,'11111222,11111222,99999999' 
WAVCIS,ioos:station:WAVCIS:CSI03:3,2009-05-08T11:00:00Z,29.4412,-92.0613,10.0,4.154,191.0,,'11111222,11111222,99999999' 
WAVCIS,ioos:station:WAVCIS:CSI03:3,2009-05-08T12:00:00Z,29.4412,-92.0613,10.0,4.367,198.0,,'11111222,11111222,99999999' 
WAVCIS,ioos:station:WAVCIS:CSI03:3,2009-05-08T13:00:00Z,29.4412,-92.0613,10.0,4.256,197.0,,'11111222,11111222,99999999' 
WAVCIS,ioos:station:WAVCIS:CSI03:3,2009-05-08T14:00:00Z,29.4412,-92.0613,10.0,4.281,195.0,,'11111222,11111222,99999999' 
WAVCIS,ioos:station:WAVCIS:CSI03:3,2009-05-08T15:00:00Z,29.4412,-92.0613,10.0,5.047,199.0,,'11111222,11111222,99999999' 
WAVCIS,ioos:station:WAVCIS:CSI03:3,2009-05-08T16:00:00Z,29.4412,-92.0613,10.0,6.82,201.0,,'11111222,11111222,99999999' 
WAVCIS,ioos:station:WAVCIS:CSI03:3,2009-05-08T17:00:00Z,29.4412,-92.0613,10.0,6.105,203.0,,'11111222,11111222,99999999' 
WAVCIS,ioos:station:WAVCIS:CSI03:3,2009-05-08T18:00:00Z,29.4412,-92.0613,10.0,4.143,200.0,,'11111222,11111222,99999999' 
WAVCIS,ioos:station:WAVCIS:CSI03:3,2009-05-08T19:00:00Z,29.4412,-92.0613,10.0,4.831,203.0,,'11111222,11111222,99999999' 
WAVCIS,ioos:station:WAVCIS:CSI03:3,2009-05-08T20:00:00Z,29.4412,-92.0613,10.0,4.03,191.0,,'11111222,11111222,99999999' 
WAVCIS,ioos:station:WAVCIS:CSI03:3,2009-05-08T21:00:00Z,29.4412,-92.0613,10.0,5.02,189.0,,'11111222,11111222,99999999' 
WAVCIS,ioos:station:WAVCIS:CSI03:3,2009-05-08T22:00:00Z,29.4412,-92.0613,10.0,4.693,189.0,,'11111222,11111222,99999999' 
WAVCIS,ioos:station:WAVCIS:CSI03:3,2009-05-08T23:00:00Z,29.4412,-92.0613,10.0,4.604,196.0,,'11111222,11111222,99999999' 
WAVCIS,ioos:station:WAVCIS:CSI03:3,2009-05-09T00:00:00Z,29.4412,-92.0613,10.0,6.858,183.0,,'11111222,11111222,99999999' 
WAVCIS,ioos:station:WAVCIS:CSI03:3,2009-05-09T01:00:00Z,29.4412,-92.0613,10.0,7.66,181.0,,'11111222,11111222,99999999' 
WAVCIS,ioos:station:WAVCIS:CSI03:3,2009-05-09T02:00:00Z,29.4412,-92.0613,10.0,7.54,183.0,,'11111222,11111222,99999999' 
WAVCIS,ioos:station:WAVCIS:CSI03:3,2009-05-09T03:00:00Z,29.4412,-92.0613,10.0,8.8,180.0,,'11111222,11111222,99999999' 
WAVCIS,ioos:station:WAVCIS:CSI03:3,2009-05-09T04:00:00Z,29.4412,-92.0613,10.0,8.14,179.0,,'11111222,11111222,99999999' 